Regional Weather Roundup
Issued by NWS

Home | Current Version | Previous Version | Text Only | Print | Product List | Glossary Off
Versions: 1 2 3 4 5 6 7 8 9 10 11 12 13 14 15 16 17 18 19 20 21 22 23 24 25 26 27 28 29 30 31 32 33 34 35 36 37 38 39 40 41 42 43 44 45 46 47 48 49 50

000
ASUS43 KLMK 211910
RWRKY
KENTUCKY REGIONAL WEATHER ROUNDUP
NATIONAL WEATHER SERVICE LOUISVILLE KY
200 PM EST TUE FEB 21 2017

NOTE "FAIR" INDICATES FEW OR NO CLOUDS BELOW 12,000 FEET
WITH NO SIGNIFICANT WEATHER AND/OR OBSTRUCTIONS TO VISIBILITY.

KYZ001>023-026-027-061>063-070>075-212000-
WESTERN AND SOUTH CENTRAL KENTUCKY

CITY           SKY/WX    TMP DP  RH WIND       PRES   REMARKS
PADUCAH        CLOUDY    64  54  69 S7        29.90F
HENDERSON      CLOUDY    63  52  67 NE8       29.92F
OWENSBORO      CLOUDY    68  53  58 S6        29.94S
HOPKINSVILLE   PTSUNNY   71  53  54 S15       29.89F
BOWLING GREEN  LGT RAIN  71  53  52 MISG      29.94F
GLASGOW        CLOUDY    69  50  50 S9        29.96F
$$

KYZ024-025-028>034-038-045-046-053-212000-
NORTH CENTRAL KENTUCKY

CITY           SKY/WX    TMP DP  RH WIND       PRES   REMARKS
LOUISVILLE/SDF CLOUDY    72  47  40 S8        29.95F
LOUISVILLE/LOU CLOUDY    72  49  44 CALM      29.95F
FORT KNOX      PTSUNNY   69  51  51 S7        29.94F
$$

KYZ035>037-039>044-047>052-055>060-089>105-212000-
NORTHEAST KENTUCKY

CITY           SKY/WX    TMP DP  RH WIND       PRES   REMARKS
LEXINGTON      CLOUDY    70  45  40 S12       29.99F
COVINGTON      CLOUDY    67  49  52 SW7       29.99F
FRANKFORT      CLOUDY    71  47  42 S8        29.97F
$$

KYZ054-064>069-076>088-106>120-212000-
SOUTHEAST KENTUCKY

CITY           SKY/WX    TMP DP  RH WIND       PRES   REMARKS
JACKSON        MOSUNNY   73  42  32 S8        30.02F
LONDON         PTSUNNY   70  42  36 S10       30.01F
SOMERSET       CLOUDY    68  45  42 SW6       30.01F
MIDDLESBORO    MOSUNNY   71  44  37 CALM      30.02F
MONTICELLO     CLOUDY    70  50  49 VRB7      30.00F
$$





USA.gov is the U.S. government's official web portal to all federal, state and local government web resources and services.